• Em Portugal
  • Lista de países
  • Para 7 dias
  • Temperatura da água
  • Mapas de satélite
  • Mapa do tempo
  • Widgets de tempo
  • user-avatar
    Iniciar Sessão

    Previsão horária em Vanadzor

    Hoje, 25 Setembro, Segunda-feira

    Tempo Temperatura Precipitação Vento Pressão Humidade
    00:00 +12°C° 0,1 mm 2 m/s 639 mmHg 87%
    01:00 +12°C° 0 mm 2 m/s 639 mmHg 88%
    02:00 +12°C° 0 mm 2 m/s 639 mmHg 89%
    03:00 +12°C° 0 mm 2 m/s 638 mmHg 89%
    04:00 +10°C° 0 mm 2 m/s 638 mmHg 90%
    05:00 +11°C° 0 mm 1 m/s 638 mmHg 90%
    06:00 +11°C° 0 mm 1 m/s 638 mmHg 90%
    07:00 +13°C° 0 mm 1 m/s 639 mmHg 81%
    08:00 +15°C° 0 mm 1 m/s 640 mmHg 72%
    09:00 +18°C° 0 mm 1 m/s 640 mmHg 63%
    10:00 +19°C° 0,3 mm 1 m/s 640 mmHg 59%
    11:00 +20°C° 0,3 mm 2 m/s 640 mmHg 54%
    12:00 +21°C° 0,3 mm 2 m/s 640 mmHg 49%
    13:00 +21°C° 0,6 mm 2 m/s 640 mmHg 49%
    14:00 +21°C° 0,6 mm 2 m/s 640 mmHg 49%
    15:00 +21°C° 0,6 mm 2 m/s 640 mmHg 49%
    16:00 +19°C° 0,5 mm 2 m/s 639 mmHg 57%
    17:00 +17°C° 0,5 mm 2 m/s 639 mmHg 65%
    18:00 +16°C° 0,5 mm 2 m/s 638 mmHg 73%
    19:00 +15°C° 0,1 mm 2 m/s 638 mmHg 77%
    20:00 +14°C° 0,1 mm 2 m/s 638 mmHg 81%
    21:00 +13°C° 0,1 mm 1 m/s 638 mmHg 85%
    22:00 +13°C° 0 mm 1 m/s 638 mmHg 86%
    23:00 +12°C° 0 mm 1 m/s 638 mmHg 87%

    Amanhã, 26 Setembro, Terça-feira

    Tempo Temperatura Precipitação Vento Pressão Humidade
    00:00 +12°C° 0 mm 1 m/s 638 mmHg 89%
    01:00 +12°C° 0 mm 1 m/s 638 mmHg 89%
    02:00 +12°C° 0 mm 1 m/s 637 mmHg 89%
    03:00 +11°C° 0 mm 1 m/s 637 mmHg 90%
    04:00 +11°C° 0 mm 1 m/s 637 mmHg 91%
    05:00 +11°C° 0 mm 1 m/s 637 mmHg 91%
    06:00 +11°C° 0 mm 1 m/s 637 mmHg 92%
    07:00 +12°C° 0 mm 1 m/s 637 mmHg 84%
    08:00 +14°C° 0 mm 1 m/s 638 mmHg 76%
    09:00 +16°C° 0 mm 2 m/s 638 mmHg 68%
    10:00 +17°C° 0 mm 2 m/s 638 mmHg 61%
    11:00 +18°C° 0 mm 2 m/s 638 mmHg 54%
    12:00 +20°C° 0 mm 2 m/s 638 mmHg 47%
    13:00 +20°C° 0 mm 2 m/s 638 mmHg 45%
    14:00 +20°C° 0 mm 2 m/s 638 mmHg 44%
    15:00 +21°C° 0 mm 2 m/s 637 mmHg 42%
    16:00 +19°C° 0 mm 2 m/s 637 mmHg 51%
    17:00 +17°C° 0 mm 2 m/s 636 mmHg 60%
    18:00 +15°C° 0 mm 2 m/s 636 mmHg 68%
    19:00 +15°C° 0 mm 2 m/s 636 mmHg 74%
    20:00 +14°C° 0 mm 2 m/s 636 mmHg 80%
    21:00 +13°C° 0 mm 2 m/s 636 mmHg 86%
    22:00 +13°C° 0 mm 2 m/s 636 mmHg 88%
    23:00 +13°C° 0 mm 2 m/s 636 mmHg 90%

    Depois de amanhã, 27 Setembro, Quarta-feira

    Tempo Temperatura Precipitação Vento Pressão Humidade
    00:00 +13°C° 0 mm 2 m/s 636 mmHg 91%
    01:00 +12°C° 0,1 mm 2 m/s 636 mmHg 92%
    02:00 +12°C° 0,1 mm 2 m/s 636 mmHg 93%
    03:00 +12°C° 0,1 mm 2 m/s 636 mmHg 94%
    04:00 +12°C° 0,1 mm 2 m/s 636 mmHg 94%
    05:00 +12°C° 0,1 mm 1 m/s 636 mmHg 94%
    06:00 +12°C° 0,1 mm 1 m/s 636 mmHg 94%
    07:00 +13°C° 0,1 mm 1 m/s 636 mmHg 86%
    08:00 +14°C° 0,1 mm 2 m/s 636 mmHg 77%
    09:00 +15°C° 0,1 mm 2 m/s 637 mmHg 69%
    10:00 +16°C° 0,1 mm 2 m/s 637 mmHg 65%
    11:00 +17°C° 0,1 mm 2 m/s 637 mmHg 61%
    12:00 +18°C° 0,1 mm 3 m/s 637 mmHg 56%
    13:00 +18°C° 0,8 mm 3 m/s 636 mmHg 59%
    14:00 +17°C° 0,8 mm 3 m/s 636 mmHg 63%
    15:00 +17°C° 0,8 mm 2 m/s 636 mmHg 66%
    16:00 +16°C° 0,9 mm 2 m/s 636 mmHg 73%
    17:00 +14°C° 0,9 mm 2 m/s 635 mmHg 80%
    18:00 +13°C° 0,9 mm 2 m/s 635 mmHg 87%
    19:00 +13°C° 0,4 mm 2 m/s 636 mmHg 89%
    20:00 +12°C° 0,4 mm 2 m/s 636 mmHg 90%
    21:00 +12°C° 0,4 mm 2 m/s 636 mmHg 92%
    22:00 +12°C° 0,1 mm 2 m/s 636 mmHg 92%
    23:00 +11°C° 0,1 mm 1 m/s 636 mmHg 93%

    28 Setembro, Quinta-feira

    Tempo Temperatura Precipitação Vento Pressão Humidade
    00:00 +11°C° 0,1 mm 1 m/s 636 mmHg 93%
    01:00 +11°C° 0,1 mm 1 m/s 635 mmHg 94%
    02:00 +11°C° 0,1 mm 1 m/s 635 mmHg 94%
    03:00 +10°C° 0,1 mm 1 m/s 635 mmHg 94%
    04:00 +10°C° 0,1 mm 1 m/s 635 mmHg 94%
    05:00 +10°C° 0,1 mm 1 m/s 635 mmHg 93%
    06:00 +10°C° 0,1 mm 1 m/s 636 mmHg 93%
    07:00 +11°C° 0,1 mm 1 m/s 636 mmHg 88%
    08:00 +12°C° 0,1 mm 1 m/s 637 mmHg 82%
    09:00 +13°C° 0,1 mm 1 m/s 637 mmHg 77%
    10:00 +14°C° 0,2 mm 1 m/s 637 mmHg 74%
    11:00 +14°C° 0,2 mm 2 m/s 637 mmHg 71%
    12:00 +15°C° 0,2 mm 2 m/s 638 mmHg 68%
    13:00 +15°C° 0,4 mm 2 m/s 637 mmHg 69%
    14:00 +15°C° 0,4 mm 2 m/s 637 mmHg 71%
    15:00 +14°C° 0,4 mm 2 m/s 637 mmHg 72%
    16:00 +13°C° 0,3 mm 2 m/s 637 mmHg 77%
    17:00 +12°C° 0,3 mm 2 m/s 637 mmHg 83%
    18:00 +10°C° 0,3 mm 3 m/s 637 mmHg 88%
    19:00 +10°C° 0,2 mm 3 m/s 637 mmHg 89%
    20:00 +10°C° 0,2 mm 2 m/s 637 mmHg 91%
    21:00 +9°C° 0,2 mm 2 m/s 637 mmHg 92%
    22:00 +9°C° 0,3 mm 2 m/s 637 mmHg 92%
    23:00 +9°C° 0,3 mm 2 m/s 637 mmHg 92%

    29 Setembro, Sexta-feira

    Tempo Temperatura Precipitação Vento Pressão Humidade
    00:00 +9°C° 0,3 mm 2 m/s 637 mmHg 92%
    01:00 +8°C° 0,1 mm 2 m/s 637 mmHg 92%
    02:00 +8°C° 0,1 mm 2 m/s 637 mmHg 93%
    03:00 +8°C° 0,1 mm 2 m/s 637 mmHg 93%
    04:00 +8°C° 0,1 mm 2 m/s 637 mmHg 93%
    05:00 +8°C° 0,1 mm 2 m/s 637 mmHg 93%
    06:00 +7°C° 0,1 mm 2 m/s 637 mmHg 93%
    07:00 +8°C° 0 mm 2 m/s 637 mmHg 89%
    08:00 +9°C° 0 mm 2 m/s 638 mmHg 84%
    09:00 +10°C° 0 mm 2 m/s 638 mmHg 80%
    10:00 +12°C° 0 mm 2 m/s 638 mmHg 77%
    11:00 +13°C° 0 mm 2 m/s 638 mmHg 73%
    12:00 +13°C° 0 mm 2 m/s 637 mmHg 70%
    13:00 +13°C° 0,1 mm 2 m/s 637 mmHg 71%
    14:00 +13°C° 0,1 mm 2 m/s 637 mmHg 73%
    15:00 +13°C° 0,1 mm 2 m/s 636 mmHg 74%
    16:00 +12°C° 0,1 mm 2 m/s 636 mmHg 78%
    17:00 +10°C° 0,1 mm 2 m/s 636 mmHg 82%
    18:00 +9°C° 0,1 mm 2 m/s 636 mmHg 87%
    19:00 +9°C° 0,1 mm 2 m/s 636 mmHg 88%
    20:00 +9°C° 0,1 mm 2 m/s 636 mmHg 90%
    21:00 +8°C° 0,1 mm 2 m/s 636 mmHg 92%
    22:00 +8°C° 0,1 mm 2 m/s 636 mmHg 93%
    23:00 +8°C° 0,1 mm 2 m/s 636 mmHg 93%

    30 Setembro, Sábado

    Tempo Temperatura Precipitação Vento Pressão Humidade
    00:00 +8°C° 0,1 mm 2 m/s 636 mmHg 93%
    01:00 +8°C° 0 mm 2 m/s 635 mmHg 94%
    02:00 +8°C° 0 mm 2 m/s 635 mmHg 94%
    03:00 +8°C° 0 mm 2 m/s 635 mmHg 94%
    04:00 +8°C° 0,1 mm 2 m/s 635 mmHg 94%
    05:00 +8°C° 0,1 mm 2 m/s 635 mmHg 94%
    06:00 +9°C° 0,1 mm 1 m/s 635 mmHg 93%
    07:00 +9°C° 0,2 mm 2 m/s 635 mmHg 88%
    08:00 +10°C° 0,2 mm 2 m/s 635 mmHg 83%
    09:00 +12°C° 0,2 mm 2 m/s 635 mmHg 78%
    10:00 +12°C° 1,2 mm 2 m/s 635 mmHg 79%
    11:00 +12°C° 1,2 mm 2 m/s 635 mmHg 81%
    12:00 +12°C° 1,2 mm 2 m/s 634 mmHg 82%
    13:00 +12°C° 0,6 mm 2 m/s 635 mmHg 79%
    14:00 +13°C° 0,6 mm 1 m/s 635 mmHg 77%
    15:00 +13°C° 0,6 mm 1 m/s 635 mmHg 74%
    16:00 +13°C° 0,1 mm 1 m/s 634 mmHg 78%
    17:00 +12°C° 0,1 mm 1 m/s 634 mmHg 81%
    18:00 +11°C° 0,1 mm 1 m/s 633 mmHg 85%
    19:00 +11°C° 0,1 mm 1 m/s 633 mmHg 87%
    20:00 +10°C° 0,1 mm 1 m/s 634 mmHg 88%
    21:00 +10°C° 0,1 mm 1 m/s 634 mmHg 90%
    22:00 +10°C° 0 mm 1 m/s 634 mmHg 88%
    23:00 +10°C° 0 mm 1 m/s 634 mmHg 86%
    Mostrar mais